Flag for Germany Weather past 2 weeks in Arnstadt, Thuringia, Germany

Now
51 °F

Passing clouds.


Feels Like: 51 °F
Forecast: 50 / 67 °F
Wind: 2 mph from West

Location: Erfurt-Bindersleben

Current Time: Sep 2, 2015 at 7:18:37 AM

Latest Report: Sep 2, 2015 at 6:00 AM


Visibility: 13 mi

Pressure: 30.06 "Hg

Humidity: 97%

Dew point: 50 °F

Location of ArnstadtLocation

Historic Weather in Arnstadt — Graph

°F

Arnstadt temperature yesterday

Maximum temperature yesterday: 81 °F (at 2:00 PM)
Minimum temperature yesterday: 57 °F (at 11:00 PM)
Average temperature yesterday: 68 °F

Past Weeks' High & Low Weather Summary

 TemperatureHumidityPressure
High92 °F (Aug 31, 4:00 PM)100% (Aug 21, 3:00 AM)30.33 "Hg (Aug 21, 3:00 AM)
Low48 °F (Aug 21, 7:00 AM)31% (Aug 30, 5:00 PM)29.67 "Hg (Aug 24, 6:00 PM)
Average65 °F72%30.02 "Hg
* Reported Aug 18 7:00 AM — Sep 2 6:00 AM, Arnstadt, Weather by CustomWeather, © 2015

Note: Actual official high and low records may vary slightly from our data, if they occured in-between our weather recording intervals... More about our weather records

Advertising

Arnstadt weather history for previous 24 hours

 ConditionsComfort  
Time TempWeatherWind HumidityBarometerVisibility
6:00 AM
Wed, Sep 2
51 °FPassing clouds.2 mph97%30.06 "Hg12 mi
5:00 AM52 °FPassing clouds.2 mph97%30.05 "Hg19 mi
4:00 AM51 °FFog.2 mph96%30.05 "Hg22 mi
3:00 AM52 °FPassing clouds.3 mph95%30.05 "Hg25 mi
2:00 AM54 °FPassing clouds.5 mph94%30.03 "Hg25 mi
1:00 AM55 °FPassing clouds.5 mph88%30.02 "Hg25 mi
11:00 PM
Tue, Sep 1
57 °FPassing clouds.3 mph84%29.98 "Hg28 mi
10:00 PM59 °FPassing clouds.5 mph87%29.96 "Hg25 mi
9:00 PM60 °FOvercast.5 mph87%29.95 "Hg22 mi
8:00 PM60 °FOvercast.5 mph85%29.91 "Hg19 mi
7:00 PM61 °FOvercast.6 mph85%29.90 "Hg19 mi
6:00 PM61 °FLight rain. Overcast.9 mph86%29.86 "Hg16 mi
5:00 PM67 °FOvercast.7 mph70%29.79 "Hg19 mi
4:00 PM74 °FOvercast.14 mph54%29.75 "Hg19 mi
3:00 PM78 °FOvercast.9 mph47%29.74 "Hg22 mi
2:00 PM81 °FOvercast.3 mph53%29.72 "Hg25 mi
1:00 PM78 °FPartly sunny.1 mph59%29.74 "Hg22 mi
12:00 PM76 °FMild.2 mph62%29.75 "HgN/A
11:00 AM75 °FPassing clouds.2 mph63%29.77 "Hg25 mi
10:00 AM72 °FPassing clouds.2 mph62%29.79 "Hg31 mi
9:00 AM71 °FScattered clouds.2 mph62%29.79 "Hg31 mi
8:00 AM66 °FPassing clouds.2 mph76%29.80 "Hg31 mi
7:00 AM65 °FPassing clouds.3 mph69%29.80 "Hg37 mi
Weather by CustomWeather, © 2015

See weather overviewHow to use our weather pages